www.pogodaiklimat.ru

Погода и климат >> Архив погоды >> Россия >> Якутия >> Джалинда


АРХИВ ПОГОДЫ в Джалинде

Время (UTC), дата Ветер
(напр.,м/с)
 
Видим.   Явления Облачность Т
(С)
Тd
(С)
f
(%)
Тe
(С)
Тes
(С)
Комфортность P
(гПа)
Po
(гПа)
Тmin
(С)
Tmax
(С)
R
(мм)
R24
(мм)
S
(см)
12 11.08 ЮВ 1 20 км дым 10/0
[Cs]
+20.1 +13.3 65 +23 +23 комфорт 1009.1 1001.9 +22.7
15 11.08 штиль 0 20 км дым 10/0
[Cs]
+12.2 +9.9 86 +12 +12 1009.4 1001.9
18 11.08 штиль 0 20 км дым 10/0
[Cs]
+7.8 +6.5 91 +7 +7 1009.1 1001.5
21 11.08 штиль 0 20 км дым 10/0
[Cs]
+6.2 +5.8 97 +5 +5 1010.3 1002.7
00 12.08 штиль 0 20 км дым 8/0
[Ci sp]
+13.2 +10.7 85 +13 +16 1010.2 1002.7 +6.2
03 12.08 штиль 0 20 км 8/0
[Ci sp]
+22.2 +13.6 58 +25 +32 комфорт 1009.9 1002.7
06 12.08 ЮВ 1 20 км дым 10/6 600 м
[Cu med, cong Ci sp]
+23.7 +13.8 54 +26 +28 жарко 1009.3 1002.2
09 12.08 штиль 0 50 км 8/5 600 м
[Cu med, cong Ci fib]
+24.0 +12.3 48 +26 +27 жарко 1007.3 1000.2
12 12.08 штиль 0 50 км 8/4 600 м
[Cu hum Cs]
+22.0 +13.8 60 +25 +25 комфорт 1007.7 1000.5 +24.2
15 12.08 штиль 0 20 км дым 10/0
[Cs]
+12.6 +10.5 87 +12 +12 1008.8 1001.3
18 12.08 штиль 0 20 км дым 9/0
[Cs]
+8.6 +8.0 96 +8 +8 1009.0 1001.5
21 12.08 штиль 0 50 км дым 9/0
[Cs]
+6.6 +6.2 97 +5 +6 1011.0 1003.4
00 13.08 штиль 0 20 км дым 9/0
[Cs]
+13.0 +8.6 75 +13 +16 1011.6 1004.1 +6.6
03 13.08 З 1 20 км дым 6/0
[Ci sp]
+22.1 +12.9 56 +25 +31 комфорт 1011.3 1004.1
06 13.08 Ю 1 20 км дым 6/4 600 м
[Cu med, cong Ci fib]
+25.4 +12.7 45 +27 +31 жарко 1010.2 1003.1
09 13.08 штиль 0 20 км дым 8/4 600 м
[Cu hum Ci sp]
+25.5 +16.1 56 +29 +31 душно 1010.5 1001.4
12 13.08 штиль 0 20 км дым 10/0
[Cs]
+22.0 +14.2 61 +25 +25 комфорт 1010.3 1003.1 +25.7
15 13.08 СЗ 1 20 км дым 10/0
[Cs]
+13.2 +9.5 78 +13 +13 1010.6 1003.1
18 13.08 штиль 0 20 км дым 10/0
[As op]
+9.2 +8.6 96 +8 +8 1010.5 1003.0
21 13.08 СЗ 3 20 км дым 10/0
[As op]
+12.6 +12.6 100 +11 +11 1008.5 1001.0
00 14.08 С 3 20 км дым 10/0
[As op]
+13.0 +12.3 96 +12 +12 1011.0 1003.5 +9.2
03 14.08 СЗ 3 20 км дым {дождь} 10/0
[As op]
+12.4 +11.8 96 +11 +12 1012.0 1004.5
06 14.08 С 5 20 км дым {дождь} 10/0
[As op]
+11.8 +10.0 89 +9 +10 1014.0 1006.5
09 14.08 С 5 20 км дым 10/6 600 м
[St As op]
+10.6 +8.8 89 +8 +8 1016.0 1008.5
12 14.08 С 5 20 км дым 10/6 600 м
[St As op]
+10.2 +7.3 82 +7 +7 1018.8 1011.3 +13.0 0.0
15 14.08 СЗ 1 50 км 10/0
[As op]
+9.0 +6.9 87 +8 +8 1019.7 1012.2
18 14.08 СЗ 1 50 км 10/0
[As op]
+7.2 +5.4 88 +6 +6 1020.6 1012.9
21 14.08 СЗ 3 50 км 10/10 600 м
[Sc]
+7.0 +4.5 84 +4 +4 1022.3 1014.6
00 15.08 С 3 50 км 10/10 600 м
[Sc]
+8.9 +6.5 85 +6 +6 1023.6 1016.0 +7.0
03 15.08 СВ 3 50 км 9/9 600 м
[Sc]
+10.7 +5.7 71 +9 +9 1025.0 1017.4
06 15.08 СВ 1 50 км 9/9 600 м
[Sc]
+11.3 +6.2 71 +11 +12 1024.6 1017.0
09 15.08 В 1 50 км 9/9 600 м
[Sc]
+11.4 +5.8 68 +11 +12 1023.9 1016.3
12 15.08 В 1 50 км 3/3 600 м
[Sc]
+11.2 +6.2 71 +11 +11 1025.2 1017.6 +11.6
15 15.08 штиль 0 50 км 3/0
[Ci fib]
+4.3 +3.6 95 +3 +3 1024.9 1017.1
18 15.08 штиль 0 50 км 3/0
[Ci fib]
+0.1 -0.5 96 -1 -1 1024.9 1017.0
21 15.08 штиль 0 4000 м туман 3/0
[Ci fib]
-1.1 -1.1 100 -3 -2 1027.3 1019.4
00 16.08 штиль 0 50 км {туман} 3/0
[Ci fib]
+7.2 +4.0 80 +6 +10 1027.0 1019.2 -1.1
03 16.08 З 1 50 км 3/0
[Ci sp]
+11.0 +5.6 69 +11 +18 1026.4 1018.8
06 16.08 З 1 50 км 3/0
[Ci sp]
+14.4 +7.5 63 +15 +21 1024.9 1017.4
09 16.08 штиль 0 50 км 3/0
[Ci fib]
+18.4 +5.5 43 +19 +22 1024.1 1016.6
12 16.08 штиль 0 50 км 3/0
[Ci sp]
+17.4 +5.7 46 +17 +18 1023.5 1016.0 +18.6
15 16.08 СЗ 1 50 км ясно +6.2 +3.3 82 +5 +5 1023.8 1016.0
18 16.08 штиль 0 50 км ясно +1.3 +0.8 96 0 0 1025.7 1017.8
21 16.08 штиль 0 50 км ясно 0.0 -0.3 98 -1 -1 1023.1 1015.2
00 17.08 штиль 0 50 км ясно +8.5 +3.7 72 +8 +11 1022.5 1014.9 0.0
03 17.08 штиль 0 50 км ясно +17.8 +9.2 57 +18 +26 1021.3 1013.9
06 17.08 штиль 0 50 км ясно +19.8 +12.9 64 +21 +29 комфорт 1019.8 1012.5
09 17.08 В 1 50 км ясно +20.5 +14.5 68 +24 +27 комфорт 1020.6 1013.3
12 17.08 В 1 50 км ясно +18.5 +10.1 58 +20 +20 1020.7 1013.3 +20.7
15 17.08 штиль 0 50 км ясно +7.2 +4.0 80 +6 +6 1020.8 1013.1
18 17.08 штиль 0 50 км ясно +1.8 +1.0 94 +1 +1 1020.3 1012.5
21 17.08 штиль 0 50 км ясно -0.2 -1.1 94 -2 -1 1021.7 1013.9
00 18.08 штиль 0 50 км ясно +9.1 +2.8 65 +9 +12 1021.3 1013.8 -0.2
03 18.08 штиль 0 50 км ясно +18.0 +4.4 41 +18 +26 1020.0 1012.6
06 18.08 штиль 0 50 км ясно +21.5 +5.5 35 +22 +29 комфорт 1018.6 1011.3

 

Местоположение метеостанции Джалинда (Якутия, Россия): широта 70.13 долгота 113.90 высота над уровнем моря 62 м.

В архиве по умолчанию представлена погода в Джалинде за последнюю неделю. Архивные данные за месяц целиком и за предыдущие месяцы, начиная с января 2011 года, Вы можете получить, выбрав интересующий диапазон дат из раскрывающегося списка и нажав кнопку "Ввод!".


*Определитесь, кто Вы:
робот инопланетянин человек

Внимание! Время в таблицах - всемирное. Для получения местного времени необходимо прибавить поправку, которая равна 9 ч.

Смотрите также архив погоды в соседних городах и на ближайших метеорологических станциях:

Погода в Оленеке (Якутия, Россия) (191 км)
Погода в Саскылахе (Якутия, Россия) (205 км)
Погода в Сухане (Якутия, Россия) (241 км)
Погода в Анабаре (Якутия, Россия) (344 км)
Погода на Усть-Оленеке (Якутия, Россия) (380 км)
Погода в Полярном (Якутия, Россия) (383 км)
Погода в Ярольине (Якутия, Россия) (399 км)
Погода в Тюмяти (Якутия, Россия) (400 км)
Погода в Джарджане (Якутия, Россия) (424 км)
Погода в Шелагонцах (Якутия, Россия) (432 км)

Пояснения к столбцам:

Ветер - указаны скорость ветра в м/с - средняя за 10 мин, порывы в срок и между сроками (в фигурных скобках) и направление, откуда дует ветер: С - северный, СВ - северо-восточный, В - восточный, ЮВ - юго-восточный, Ю - южный, ЮЗ - юго-западный, З - западный, СЗ - северо-западный.
Видимость - горизонтальная дальность видимости в метрах или километрах. При видимости от 1 до 10 км при отсутствии осадков обычно наблюдается дымка, при ухудшении видимости до 1 км и менее - туман. В сухую погоду видимость может ухудшаться дымом, пылью или мглою.
Явления - указаны атмосферные явления, наблюдавшиеся в срок или в последний час перед сроком; фигурными скобками обозначены явления, наблюдавшиеся между сроками (за 1-3 часа до срока); квадратными скобками обозначены град или гололедные отложения с указанием их диаметра в мм.
Облачность - указаны через наклонную черту общая и нижняя облачность в баллах и высота нижней границы облаков в метрах; квадратными скобками обозначены формы облаков: Ci - перистые, Cs - перисто-слоистые, Cc - перисто-кучевые, Ac - высококучевые, As - высокослоистые, Sc - слоисто-кучевые, Ns - слоисто-дождевые, Cu - кучевые, Cb - кучево-дождевые. Подробнее классификацию облаков см. в Атласе облаков (PDF).
T - Температура воздуха - температура, измеренная на высоте 2 м над землей.
Td - Температура точки росы - температура, при понижении до которой содержащийся в воздухе водяной пар достигнет насыщения.
f - Относительная влажность воздуха - влажноcть воздуха, измеренная на высоте 2 м над землей.
Te - Эффективная температура - температура, которую ощущает одетый по сезону человек в тени. Характеристика душности погоды. При расчете учитывается влияние влажности воздуха и скорости ветра на теплоощущения человека.
Tes - Эффективная температура на солнце - температура, которую ощущает человек, с поправкой на солнечный нагрев. Характеристика знойности погоды. Зависит от высоты солнца над горизонтом, облачности и скорости ветра. Ночью, в пасмурную погоду, а также при ветре 12 м/с и более поправка равна нулю.
P - Атмосферное давление - приведенное к уровню моря атмосферное давление.
Po - Атмосферное давление - измеренное на уровне метеостанции атмосферное давление.
Tmin - Минимальная температура - минимум температуры воздуха на высоте 2 м над землей.
Tmax - Максимальная температура - максимум температуры воздуха на высоте 2 м над землей.
R - Количество осадков - Количество выпавших осадков за период времени, мм. При наведении курсора мыши на число - период времени, за который выпало указанное количество осадков.
R24 - Количество осадков - Количество выпавших осадков за 24 часа, мм.
S - Снежный покров - Высота снежного покрова, см. При наведении курсора мыши на число - состояние снежного покрова и степень покрытия местности в баллах.